FENGYUN 1C DEB, 30934

Orbit data source: Space-Track

FENGYUN 1C DEB, 30934 is space debris in SSO originally from a launch on Mon, 10 May 1999 UTC launched from the Taiyaun Space Center, China (TSC). Fengyun 1C debris stems from the Chinese weather satellite Fengyun-1C, which was intentionally destroyed by a Chinese anti-satellite missile in 2007. This event dramatically increased the amount of space debris, with thousands of trackable fragments posing hazards to satellites and human spaceflight. The Fengyun 1C debris cloud has become a focal point in discussions about space sustainability and the need for international regulations to prevent the creation of new debris.

Loading next visibility...
Identifier
30934, 1999-025AZY
Orbit
SSO
Country
Flag of CNCN / PRC
Related business
Manufacturer
Unknown
Mission
Spacecraft
Bus & Motor
Unknown
Mass
Unknown
Launch date (UTC)
1999-05-10 (27 years ago)
Launch vehicle
Unknown
Launch site
Taiyaun Space Center, China (TSC)
Object type
Payload
Rocket body
Debris
Shape & HBR
Unknown shape, 1.1 m
Radar Cross Section
Medium (>0.1 m² and <1 m²)

Expand to show TLE details & history
Last TLE update: 9 hours ago

TLE from 9 hours ago
0 FENGYUN 1C DEB
1 30934U 99025AZY 26166.25508544  .00001085  00000-0  12929-2 0  9997
2 30934  98.7539  25.6585 0340070 331.7693  26.5370 13.47343423941921
Epoch: 2026-06-15T06:07Z
TLE epoch observation values (Epoch: 2026-06-15T06:07:19.382Z)
Latitude
-0°
Longitude
30.28364°
Altitude
859.66 km
Speed
7.534 km/s
True Right ascension
01h 42m 38s
True Declination
0° 00' 00"
Sunlit
Object was in daylight at epoch
Visualization orbit readout
Latitude
Unknown
Longitude
Unknown
Altitude
Unknown
Speed
Unknown
Apparent Right ascension
Unknown
Apparent Declination
Unknown
Sunlit
N/A
Visualization observer readout
Local Sidereal Time
01:37:42
Azimuth
Unknown
Elevation
Unknown
Doppler factor
Unknown
Orbital elements
Apogee altitude
1,332.908 km
Perigee altitude
825.697 km
Semi-major axis
7,457.44 km
Eccentricity
0.03401
Inclination
98.7539°
RAAN
25.6585°
Arg. of periapsis
331.7693°
True anomaly
28.34646°
Mean anomaly
26.537°
Eccentric anomaly
27.43473°
Mean motion
3.37022 °/min
Orbital period
106.82 mins
BSTAR
0.0012929
Loading maneuver chart data...
Computing Atmospheric mass density...
Loading historical data...
Loading historical data...
Loading historical data...
Loading historical data...
Loading historical data...
Loading historical data...
Loading historical data...

Documentation

Showing up to 5 results
|